Muscle Shoals, AL

12:09 AM CST on November 22, 2019 (GMT -0600)
Northwest Alabama Regional

Weather History for KMSL - October, 2019

Change the Weather History Date:

Monday, October 21, 2019

  Actual Average Record
Temperature  
Mean Temperature 68 °F 60 °F  
Max Temperature 72 °F 73 °F 89 °F (1963)
Min Temperature 63 °F 48 °F 27 °F (1913)
Degree Days  
Heating Degree Days 0 6  
Month to date heating degree days 57 81  
Since 1 July heating degree days 57 96  
Cooling Degree Days 3 1  
Month to date cooling degree days 138 51  
Year to date cooling degree days 2496 1853  
Growing Degree Days 18 (Base 50)    
Moisture  
Dew Point 62 °F    
Average Humidity 84    
Maximum Humidity 93    
Minimum Humidity 75    
Precipitation  
Precipitation 0.80 in 0.12 in 1.42 in (1984)
Month to date precipitation 2.21 2.23  
Year to date precipitation 48.73 41.66  
Snow  
Snow 0.00 in - - ()
Month to date snowfall 0.0  
Since 1 July snowfall 0.0  
Since 1 September snowfall 0.0  
Snow Depth 0.00 in    
Sea Level Pressure  
Sea Level Pressure 29.86 in    
Wind  
Wind Speed 8 mph (SSW)    
Max Wind Speed 18 mph    
Max Gust Speed 25 mph    
Visibility 8 miles    
Events Rain    
T = Trace of Precipitation, MM = Missing Value Source: NWS Daily Summary

Daily Weather History Graph

Daily Weather History Graph

Search for Another Location

Airport or City:

Astronomy

Oct. 21, 2019 Rise Set
Actual Time 7:01 AM CDT 6:08 PM CDT
Civil Twilight 6:35 AM CDT 6:34 PM CDT
Nautical Twilight 6:05 AM CDT 7:03 PM CDT
Astronomical Twilight 5:36 AM CDT 7:32 PM CDT
Moon No Moon Rise 2:10 PM CDT (10/21)
Length of Visible Light 11h 58m
Length of Day
11h 07m
Waning Gibbous, 48% of the Moon is Illuminated
Oct 21
Waning Gibbous
Oct 27
New
Nov 4
First Quarter
Nov 12
Full
Nov 19
Last Quarter

Hourly Weather History & Observations

Time (CDT) Temp. Dew Point Humidity Pressure Visibility Wind Dir Wind Speed Gust Speed Precip Events Conditions
12:53 AM 66.0 °F 59.0 °F 78% 29.88 in 10.0 mi ESE 5.8 mph - N/A   Overcast
1:53 AM 66.0 °F 60.1 °F 81% 29.85 in 10.0 mi SE 6.9 mph - N/A   Scattered Clouds
2:53 AM 66.9 °F 60.1 °F 79% 29.83 in 10.0 mi SE 8.1 mph - N/A   Clear
3:53 AM 66.9 °F 60.1 °F 79% 29.81 in 10.0 mi South 6.9 mph - N/A   Clear
4:53 AM 69.1 °F 61.0 °F 75% 29.81 in 10.0 mi South 8.1 mph 19.6 mph N/A   Clear
5:53 AM 68.0 °F 61.0 °F 78% 29.82 in 10.0 mi South 6.9 mph - N/A   Clear
6:53 AM 68.0 °F 62.1 °F 81% 29.82 in 10.0 mi South 10.4 mph - N/A   Clear
7:53 AM 69.1 °F 63.0 °F 81% 29.83 in 10.0 mi South 10.4 mph - N/A   Mostly Cloudy
9:40 AM 71.1 °F 64.9 °F 81% 29.89 in 10.0 mi SW 10.4 mph - N/A   Overcast
9:53 AM 71.1 °F 64.9 °F 81% 29.87 in 10.0 mi SSW 8.1 mph - 0.00 in Rain Light Rain
10:33 AM 71.1 °F 66.9 °F 87% 29.88 in 10.0 mi SSW 8.1 mph - 0.05 in   Overcast
10:53 AM 71.1 °F 66.9 °F 87% 29.87 in 10.0 mi South 8.1 mph - 0.05 in   Overcast
11:53 AM 71.1 °F 66.9 °F 87% 29.88 in 10.0 mi South 8.1 mph - 0.00 in   Overcast
12:53 PM 64.9 °F 61.0 °F 87% 29.90 in 1.5 mi West 15.0 mph - 0.15 in Rain Rain
12:58 PM 64.9 °F 61.0 °F 87% 29.91 in 3.0 mi West 12.7 mph - 0.03 in Rain Heavy Rain
1:53 PM 64.9 °F 62.1 °F 90% 29.88 in 6.0 mi South 6.9 mph - 0.12 in Rain Rain
2:44 PM 64.0 °F 61.0 °F 90% 29.88 in 2.5 mi SSW 8.1 mph - 0.12 in Rain Heavy Rain
2:53 PM 64.0 °F 61.0 °F 90% 29.86 in 4.0 mi South 5.8 mph - 0.14 in Rain Rain
3:53 PM 64.0 °F 61.0 °F 90% 29.85 in 6.0 mi SSE 9.2 mph - 0.07 in Rain Rain
4:53 PM 64.0 °F 62.1 °F 93% 29.83 in 7.0 mi SSE 5.8 mph - 0.08 in Rain Light Rain
5:18 PM 64.0 °F 62.1 °F 93% 29.84 in 10.0 mi SSE 8.1 mph - 0.02 in Rain Light Rain
5:53 PM 64.0 °F 61.0 °F 90% 29.83 in 8.0 mi South 3.5 mph - 0.02 in Rain Light Rain
6:04 PM 64.0 °F 61.0 °F 90% 29.85 in 1.8 mi South 4.6 mph - 0.10 in Rain Heavy Rain
6:09 PM 64.0 °F 62.1 °F 93% 29.85 in 3.0 mi South 5.8 mph - 0.11 in Rain Light Rain
6:53 PM 64.0 °F 62.1 °F 93% 29.84 in 6.0 mi South 4.6 mph - 0.12 in Rain Rain
7:09 PM 64.0 °F 62.1 °F 93% 29.85 in 4.0 mi Calm Calm - 0.04 in Rain Light Rain
7:18 PM 64.0 °F 62.1 °F 93% 29.85 in 7.0 mi South 3.5 mph - 0.04 in Rain Light Rain
7:42 PM 64.0 °F 62.1 °F 93% 29.86 in 10.0 mi Calm Calm - 0.04 in   Overcast
7:46 PM 64.0 °F 62.1 °F 93% 29.86 in 10.0 mi South 3.5 mph - 0.04 in   Overcast
7:53 PM 64.0 °F 62.1 °F 93% 29.85 in 10.0 mi South 3.5 mph - 0.04 in   Overcast
8:04 PM 64.0 °F 62.1 °F 93% 29.87 in 10.0 mi SSW 3.5 mph - N/A   Overcast
8:28 PM 64.0 °F 62.1 °F 93% 29.88 in 10.0 mi Calm Calm - N/A   Overcast
8:51 PM 64.4 °F 62.6 °F 94% 29.88 in 9.0 mi West 3.5 mph - 0.01 in   Overcast
8:53 PM 64.0 °F 62.1 °F 93% 29.87 in 9.0 mi West 3.5 mph - 0.01 in Rain Light Rain
9:22 PM 64.0 °F 62.1 °F 93% 29.89 in 9.0 mi WSW 4.6 mph - 0.00 in   Overcast
9:38 PM 64.0 °F 62.1 °F 93% 29.90 in 9.0 mi WSW 3.5 mph - 0.00 in   Overcast
9:53 PM 64.0 °F 62.1 °F 93% 29.89 in 10.0 mi West 5.8 mph - 0.00 in   Overcast
10:18 PM 64.0 °F 62.1 °F 93% 29.90 in 10.0 mi West 6.9 mph - N/A   Overcast
10:30 PM 64.0 °F 62.1 °F 93% 29.90 in 10.0 mi WNW 8.1 mph - N/A   Overcast
10:53 PM 64.0 °F 61.0 °F 90% 29.89 in 10.0 mi West 6.9 mph - N/A   Overcast
11:03 PM 64.0 °F 61.0 °F 90% 29.90 in 10.0 mi West 6.9 mph - N/A   Overcast
11:15 PM 64.0 °F 62.1 °F 93% 29.90 in 10.0 mi WNW 3.5 mph - N/A   Overcast
11:53 PM 64.0 °F 61.0 °F 90% 29.88 in 10.0 mi West 5.8 mph - N/A   Overcast